TimeEST,TemperatureF,Dew PointF,Humidity,Sea Level PressureIn,VisibilityMPH,Wind Direction,Wind SpeedMPH,Gust SpeedMPH,PrecipitationIn,Events,Conditions,WindDirDegrees,DateUTC
12:15 AM,7.2,5.0,91,29.77,7.0,WNW,4.6,-,N/A,Snow,Light Snow,290,2014-01-18 05:15:00
12:35 AM,7.7,5.9,92,29.77,10.0,WNW,4.6,-,N/A,,Scattered Clouds,300,2014-01-18 05:35:00
12:55 AM,9.9,8.2,93,29.76,1.5,WNW,4.6,-,N/A,Snow,Light Snow,290,2014-01-18 05:55:00
1:15 AM,13.6,11.8,93,29.76,1.8,WNW,3.5,-,N/A,Snow,Light Snow,300,2014-01-18 06:15:00
1:35 AM,11.3,9.3,92,29.77,2.5,West,3.5,-,N/A,Snow,Light Snow,280,2014-01-18 06:35:00
1:55 AM,8.8,6.4,90,29.77,10.0,WNW,5.8,-,N/A,Snow,Light Snow,300,2014-01-18 06:55:00
2:15 AM,10.2,7.9,90,29.77,10.0,WNW,4.6,-,N/A,,Scattered Clouds,290,2014-01-18 07:15:00
2:35 AM,10.0,8.1,92,29.78,4.0,West,4.6,-,N/A,Snow,Light Snow,270,2014-01-18 07:35:00
2:55 AM,8.4,6.4,92,29.78,3.0,WNW,4.6,-,N/A,Snow,Light Snow,300,2014-01-18 07:55:00
3:15 AM,12.2,10.4,92,29.78,10.0,NW,4.6,-,N/A,Snow,Light Snow,310,2014-01-18 08:15:00
3:35 AM,6.3,3.9,90,29.78,10.0,WNW,3.5,-,N/A,,Clear,290,2014-01-18 08:35:00
3:55 AM,4.1,1.2,88,29.78,10.0,Calm,Calm,-,N/A,,Clear,0,2014-01-18 08:55:00
4:15 AM,0.1,-2.0,91,29.78,10.0,Calm,Calm,-,N/A,,Clear,0,2014-01-18 09:15:00
4:35 AM,-1.5,-4.0,89,29.78,10.0,WNW,3.5,-,N/A,,Clear,290,2014-01-18 09:35:00
4:55 AM,-5.3,-8.5,86,29.78,10.0,West,3.5,-,N/A,,Clear,270,2014-01-18 09:55:00
5:15 AM,0.7,-1.8,89,29.78,7.0,Calm,Calm,-,N/A,Snow,Light Snow,0,2014-01-18 10:15:00
5:35 AM,-3.8,-6.3,89,29.78,10.0,WNW,3.5,-,N/A,,Clear,300,2014-01-18 10:35:00
5:55 AM,-4.2,-6.9,88,29.78,10.0,WNW,3.5,-,N/A,,Clear,300,2014-01-18 10:55:00
6:15 AM,-6.7,-9.9,86,29.78,10.0,West,3.5,-,N/A,,Clear,280,2014-01-18 11:15:00
6:35 AM,-4.5,-6.9,90,29.78,10.0,West,4.6,-,N/A,,Clear,270,2014-01-18 11:35:00
6:55 AM,-1.1,-3.3,91,29.78,10.0,West,3.5,-,N/A,,Clear,270,2014-01-18 11:55:00
7:15 AM,-4.9,-7.2,90,29.78,10.0,SW,3.5,-,N/A,,Clear,230,2014-01-18 12:15:00
7:35 AM,-7.6,-10.1,89,29.79,10.0,WSW,4.6,-,N/A,,Clear,240,2014-01-18 12:35:00
7:55 AM,-6.9,-9.6,88,29.79,10.0,West,3.5,-,N/A,,Clear,280,2014-01-18 12:55:00
8:15 AM,-7.6,-10.5,87,29.79,10.0,WSW,3.5,-,N/A,,Clear,250,2014-01-18 13:15:00
8:35 AM,-5.8,-8.5,88,29.79,10.0,West,3.5,-,N/A,,Clear,270,2014-01-18 13:35:00
8:55 AM,-4.4,-6.5,90,29.80,10.0,Calm,Calm,-,N/A,,Clear,0,2014-01-18 13:55:00
9:15 AM,-2.7,-5.1,90,29.81,10.0,Calm,Calm,-,N/A,,Clear,0,2014-01-18 14:15:00
9:35 AM,2.3,0.5,92,29.82,10.0,Calm,Calm,-,N/A,,Clear,0,2014-01-18 14:35:00
9:55 AM,-9999,-9999,N/A,29.82,10.0,Calm,Calm,-,N/A,,Clear,0,2014-01-18 14:55:00
10:15 AM,-9999,-9999,N/A,29.83,4.0,SW,3.5,-,N/A,,Haze,230,2014-01-18 15:15:00
10:35 AM,-9999,-9999,N/A,29.83,10.0,Calm,Calm,-,N/A,,Clear,0,2014-01-18 15:35:00
10:55 AM,-9999,-9999,N/A,29.83,10.0,Calm,Calm,-,N/A,,Clear,0,2014-01-18 15:55:00
11:15 AM,13.6,11.7,92,29.83,10.0,Calm,Calm,-,N/A,,Clear,0,2014-01-18 16:15:00
11:35 AM,-9999,-9999,N/A,29.82,10.0,Calm,Calm,-,N/A,,Clear,0,2014-01-18 16:35:00
11:55 AM,13.6,11.8,93,29.82,10.0,Calm,Calm,-,N/A,,Clear,0,2014-01-18 16:55:00
12:15 PM,14.7,12.7,92,29.81,10.0,Calm,Calm,-,N/A,,Clear,0,2014-01-18 17:15:00
12:35 PM,15.6,13.6,92,29.81,10.0,Calm,Calm,-,N/A,,Clear,0,2014-01-18 17:35:00
12:55 PM,15.1,13.1,92,29.80,10.0,Calm,Calm,-,N/A,,Clear,0,2014-01-18 17:55:00
1:15 PM,16.9,15.1,93,29.79,10.0,West,3.5,-,N/A,,Scattered Clouds,280,2014-01-18 18:15:00
1:35 PM,15.4,13.6,93,29.79,10.0,Calm,Calm,-,N/A,,Scattered Clouds,0,2014-01-18 18:35:00
1:55 PM,17.8,16.0,93,29.78,10.0,Calm,Calm,-,N/A,,Scattered Clouds,0,2014-01-18 18:55:00
2:15 PM,18.9,16.9,92,29.78,10.0,West,8.1,-,N/A,,Mostly Cloudy,280,2014-01-18 19:15:00
2:35 PM,18.7,15.8,89,29.78,10.0,NW,4.6,-,N/A,,Overcast,310,2014-01-18 19:35:00
2:55 PM,19.4,15.3,84,29.78,10.0,WNW,6.9,-,N/A,Snow,Light Snow,290,2014-01-18 19:55:00
3:15 PM,18.5,14.0,83,29.78,10.0,West,6.9,-,N/A,,Overcast,270,2014-01-18 20:15:00
3:35 PM,19.2,14.2,81,29.78,4.0,WSW,3.5,-,N/A,Snow,Light Snow,250,2014-01-18 20:35:00
3:55 PM,18.9,14.0,81,29.78,7.0,Calm,Calm,-,N/A,Snow,Light Snow,0,2014-01-18 20:55:00
4:14 PM,19.2,13.1,77,29.78,10.0,WSW,5.8,-,N/A,,Overcast,240,2014-01-18 21:14:00
4:35 PM,19.4,13.1,76,29.77,7.0,WSW,5.8,-,N/A,Snow,Light Snow,240,2014-01-18 21:35:00
4:55 PM,19.2,13.6,79,29.77,7.0,WSW,4.6,-,N/A,Snow,Light Snow,240,2014-01-18 21:55:00
5:15 PM,19.0,14.4,82,29.77,5.0,SW,5.8,-,N/A,Snow,Light Snow,230,2014-01-18 22:15:00
5:34 PM,19.0,14.0,81,29.76,10.0,SW,4.6,-,N/A,Snow,Light Snow,230,2014-01-18 22:34:00
5:55 PM,18.3,13.1,80,29.76,10.0,SSW,6.9,-,N/A,,Overcast,210,2014-01-18 22:55:00
6:15 PM,14.5,9.1,79,29.75,10.0,SSW,8.1,-,N/A,,Mostly Cloudy,200,2014-01-18 23:15:00
6:35 PM,12.7,8.1,82,29.75,10.0,SW,8.1,-,N/A,,Mostly Cloudy,220,2014-01-18 23:35:00
6:55 PM,15.6,9.3,76,29.75,10.0,SSW,8.1,-,N/A,,Overcast,210,2014-01-18 23:55:00
7:15 PM,15.1,10.6,82,29.75,10.0,SSW,8.1,-,N/A,,Overcast,200,2014-01-19 00:15:00
7:35 PM,13.8,10.4,86,29.74,10.0,SSW,5.8,-,N/A,,Overcast,200,2014-01-19 00:35:00
7:55 PM,12.4,10.0,90,29.73,10.0,SSW,5.8,-,N/A,,Scattered Clouds,210,2014-01-19 00:55:00
8:15 PM,10.6,9.0,93,29.72,10.0,SSW,6.9,-,N/A,,Clear,210,2014-01-19 01:15:00
8:35 PM,8.6,7.3,95,29.71,10.0,SSW,8.1,-,N/A,,Clear,210,2014-01-19 01:35:00
8:55 PM,7.5,5.7,92,29.69,10.0,SSW,9.2,-,N/A,,Clear,210,2014-01-19 01:55:00
9:15 PM,10.6,8.1,90,29.68,10.0,SW,8.1,-,N/A,,Clear,220,2014-01-19 02:15:00
9:35 PM,11.3,8.6,89,29.67,10.0,SW,10.4,-,N/A,,Clear,220,2014-01-19 02:35:00
9:55 PM,11.7,8.6,88,29.66,10.0,SW,10.4,-,N/A,,Clear,230,2014-01-19 02:55:00
10:15 PM,11.1,7.9,87,29.65,10.0,SW,10.4,-,N/A,,Clear,220,2014-01-19 03:15:00
10:35 PM,10.9,8.1,88,29.64,10.0,SW,11.5,-,N/A,,Clear,220,2014-01-19 03:35:00
10:55 PM,12.0,8.4,85,29.62,10.0,SW,12.7,-,N/A,,Clear,220,2014-01-19 03:55:00
11:15 PM,12.7,8.6,84,29.61,10.0,SW,13.8,-,N/A,,Clear,220,2014-01-19 04:15:00
11:34 PM,13.8,8.6,80,29.60,10.0,SW,12.7,-,N/A,,Clear,220,2014-01-19 04:34:00
11:55 PM,13.6,8.6,80,29.58,10.0,SW,12.7,17.3,N/A,,Mostly Cloudy,220,2014-01-19 04:55:00